Time,TemperatureF,DewpointF,PressureIn,WindDirection,WindDirectionDegrees,WindSpeedMPH,WindSpeedGustMPH,Humidity,HourlyPrecipIn,Conditions,Clouds,dailyrainin,SoftwareType,DateUTC
2013-02-21 00:00:00,25.4,15.6,29.70,West,266,5.0,8.0,66,0.00,,CLR,0.00,VWS V14.01,2013-02-21 05:00:00,
2013-02-21 00:05:00,25.4,15.6,29.70,WNW,300,5.0,12.0,66,0.00,,CLR,0.00,VWS V14.01,2013-02-21 05:05:00,
2013-02-21 00:10:00,25.3,15.9,29.71,NNE,23,2.0,6.0,67,0.00,,CLR,0.00,VWS V14.01,2013-02-21 05:10:00,
2013-02-21 00:15:00,25.3,15.6,29.71,NNW,333,2.0,6.0,66,0.00,,CLR,0.00,VWS V14.01,2013-02-21 05:15:00,
2013-02-21 00:20:00,25.3,15.9,29.71,WNW,290,3.0,5.0,67,0.00,,CLR,0.00,VWS V14.01,2013-02-21 05:20:00,
2013-02-21 00:25:00,25.2,15.8,29.71,West,263,1.0,3.0,67,0.00,,CLR,0.00,VWS V14.01,2013-02-21 05:25:00,
2013-02-21 00:30:00,25.1,15.7,29.71,SE,139,0.0,4.0,67,0.00,,CLR,0.00,VWS V14.01,2013-02-21 05:30:00,
2013-02-21 00:35:00,25.0,15.6,29.71,SSW,199,1.0,3.0,67,0.00,,CLR,0.00,VWS V14.01,2013-02-21 05:35:00,
2013-02-21 00:40:00,24.9,15.5,29.72,NNW,347,2.0,5.0,67,0.00,,CLR,0.00,VWS V14.01,2013-02-21 05:40:00,
2013-02-21 00:45:00,24.9,15.5,29.72,WSW,246,4.0,4.0,67,0.00,,CLR,0.00,VWS V14.01,2013-02-21 05:45:00,
2013-02-21 00:50:00,24.8,15.8,29.72,NW,315,1.0,2.0,68,0.00,,CLR,0.00,VWS V14.01,2013-02-21 05:50:00,
2013-02-21 00:55:00,24.6,15.6,29.72,West,263,0.0,5.0,68,0.00,,CLR,0.00,VWS V14.01,2013-02-21 05:55:00,
2013-02-21 01:00:00,24.5,15.5,29.72,ESE,111,2.0,2.0,68,0.00,,CLR,0.00,VWS V14.01,2013-02-21 06:00:00,
2013-02-21 01:05:00,24.4,15.4,29.72,WSW,255,0.0,3.0,68,0.00,,CLR,0.00,VWS V14.01,2013-02-21 06:05:00,
2013-02-21 01:10:00,24.4,15.4,29.72,West,261,0.0,4.0,68,0.00,,CLR,0.00,VWS V14.01,2013-02-21 06:10:00,
2013-02-21 01:15:00,24.3,15.3,29.72,South,171,1.0,3.0,68,0.00,,CLR,0.00,VWS V14.01,2013-02-21 06:15:00,
2013-02-21 01:20:00,24.3,15.3,29.72,SSE,162,2.0,4.0,68,0.00,,CLR,0.00,VWS V14.01,2013-02-21 06:20:00,
2013-02-21 01:25:00,24.3,15.3,29.72,South,187,1.0,4.0,68,0.00,,CLR,0.00,VWS V14.01,2013-02-21 06:25:00,
2013-02-21 01:30:00,24.3,15.3,29.72,West,263,3.0,3.0,68,0.00,,CLR,0.00,VWS V14.01,2013-02-21 06:30:00,
2013-02-21 01:35:00,24.4,15.4,29.72,NW,319,1.0,4.0,68,0.00,,CLR,0.00,VWS V14.01,2013-02-21 06:35:00,
2013-02-21 01:40:00,24.4,15.4,29.72,SW,225,5.0,5.0,68,0.00,,CLR,0.00,VWS V14.01,2013-02-21 06:40:00,
2013-02-21 01:45:00,24.6,15.2,29.72,WSW,246,2.0,4.0,67,0.00,,CLR,0.00,VWS V14.01,2013-02-21 06:45:00,
2013-02-21 01:50:00,24.7,15.3,29.72,SSW,200,2.0,5.0,67,0.00,,CLR,0.00,VWS V14.01,2013-02-21 06:50:00,
2013-02-21 01:55:00,24.7,15.3,29.72,West,263,3.0,4.0,67,0.00,,CLR,0.00,VWS V14.01,2013-02-21 06:55:00,
2013-02-21 02:00:00,24.8,15.4,29.72,SW,219,2.0,4.0,67,0.00,,CLR,0.00,VWS V14.01,2013-02-21 07:00:00,
2013-02-21 02:05:00,24.8,15.4,29.72,SSE,153,0.0,6.0,67,0.00,,CLR,0.00,VWS V14.01,2013-02-21 07:05:00,
2013-02-21 02:10:00,24.7,15.3,29.72,SW,224,4.0,7.0,67,0.00,,CLR,0.00,VWS V14.01,2013-02-21 07:10:00,
2013-02-21 02:15:00,24.7,15.3,29.72,SW,229,2.0,5.0,67,0.00,,CLR,0.00,VWS V14.01,2013-02-21 07:15:00,
2013-02-21 02:20:00,24.8,15.1,29.72,WSW,252,1.0,6.0,66,0.00,,CLR,0.00,VWS V14.01,2013-02-21 07:20:00,
2013-02-21 02:25:00,24.8,15.1,29.72,SW,236,5.0,11.0,66,0.00,,CLR,0.00,VWS V14.01,2013-02-21 07:25:00,
2013-02-21 02:30:00,24.8,15.1,29.72,West,270,2.0,5.0,66,0.00,,CLR,0.00,VWS V14.01,2013-02-21 07:30:00,
2013-02-21 02:35:00,24.9,14.8,29.72,WSW,252,4.0,8.0,65,0.00,,CLR,0.00,VWS V14.01,2013-02-21 07:35:00,
2013-02-21 02:40:00,24.8,15.1,29.72,ESE,122,2.0,7.0,66,0.00,,CLR,0.00,VWS V14.01,2013-02-21 07:40:00,
2013-02-21 02:45:00,24.6,14.9,29.72,SSW,204,0.0,5.0,66,0.00,,CLR,0.00,VWS V14.01,2013-02-21 07:45:00,
2013-02-21 02:50:00,24.6,14.9,29.72,WSW,243,3.0,9.0,66,0.00,,CLR,0.00,VWS V14.01,2013-02-21 07:50:00,
2013-02-21 02:55:00,24.5,14.8,29.72,NW,312,3.0,4.0,66,0.00,,CLR,0.00,VWS V14.01,2013-02-21 07:55:00,
2013-02-21 03:00:00,24.5,14.4,29.72,SW,218,3.0,3.0,65,0.00,,CLR,0.00,VWS V14.01,2013-02-21 08:00:00,
2013-02-21 03:05:00,24.4,14.7,29.72,West,273,1.0,3.0,66,0.00,,CLR,0.00,VWS V14.01,2013-02-21 08:05:00,
2013-02-21 03:10:00,24.3,14.6,29.72,SW,226,1.0,5.0,66,0.00,,CLR,0.00,VWS V14.01,2013-02-21 08:10:00,
2013-02-21 03:15:00,24.2,14.1,29.72,ESE,109,1.0,3.0,65,0.00,,CLR,0.00,VWS V14.01,2013-02-21 08:15:00,
2013-02-21 03:20:00,24.1,14.4,29.72,West,269,2.0,6.0,66,0.00,,CLR,0.00,VWS V14.01,2013-02-21 08:20:00,
2013-02-21 03:25:00,24.1,14.4,29.72,ESE,108,1.0,4.0,66,0.00,,CLR,0.00,VWS V14.01,2013-02-21 08:25:00,
2013-02-21 03:30:00,24.1,14.4,29.72,West,263,4.0,6.0,66,0.00,,CLR,0.00,VWS V14.01,2013-02-21 08:30:00,
2013-02-21 03:35:00,24.2,14.5,29.72,WSW,256,1.0,5.0,66,0.00,,CLR,0.00,VWS V14.01,2013-02-21 08:35:00,
2013-02-21 03:40:00,24.0,14.3,29.72,SW,233,1.0,2.0,66,0.00,,CLR,0.00,VWS V14.01,2013-02-21 08:40:00,
2013-02-21 03:45:00,24.0,14.3,29.72,SW,219,1.0,7.0,66,0.00,,CLR,0.00,VWS V14.01,2013-02-21 08:45:00,
2013-02-21 03:50:00,23.9,14.2,29.72,SW,222,2.0,6.0,66,0.00,,CLR,0.00,VWS V14.01,2013-02-21 08:50:00,
2013-02-21 03:55:00,23.8,14.1,29.72,South,181,2.0,6.0,66,0.00,,CLR,0.00,VWS V14.01,2013-02-21 08:55:00,
2013-02-21 04:00:00,23.8,14.1,29.72,SW,232,3.0,7.0,66,0.00,,CLR,0.00,VWS V14.01,2013-02-21 09:00:00,
2013-02-21 04:05:00,23.7,14.0,29.72,West,263,3.0,6.0,66,0.00,,CLR,0.00,VWS V14.01,2013-02-21 09:05:00,
2013-02-21 04:10:00,23.7,14.0,29.72,WSW,239,4.0,4.0,66,0.00,,CLR,0.00,VWS V14.01,2013-02-21 09:10:00,
2013-02-21 04:15:00,23.7,14.0,29.72,WSW,255,2.0,7.0,66,0.00,,CLR,0.00,VWS V14.01,2013-02-21 09:15:00,
2013-02-21 04:20:00,23.7,14.0,29.72,SW,232,5.0,11.0,66,0.00,,CLR,0.00,VWS V14.01,2013-02-21 09:20:00,
2013-02-21 04:25:00,23.7,14.0,29.73,West,278,0.0,5.0,66,0.00,,CLR,0.00,VWS V14.01,2013-02-21 09:25:00,
2013-02-21 04:30:00,23.7,14.0,29.72,WSW,241,2.0,8.0,66,0.00,,CLR,0.00,VWS V14.01,2013-02-21 09:30:00,
2013-02-21 04:35:00,23.7,14.0,29.72,West,280,3.0,10.0,66,0.00,,CLR,0.00,VWS V14.01,2013-02-21 09:35:00,
2013-02-21 04:40:00,23.7,14.0,29.73,SSW,193,3.0,8.0,66,0.00,,CLR,0.00,VWS V14.01,2013-02-21 09:40:00,
2013-02-21 04:45:00,23.5,13.8,29.73,ESE,104,1.0,3.0,66,0.00,,CLR,0.00,VWS V14.01,2013-02-21 09:45:00,
2013-02-21 04:50:00,23.3,14.0,29.73,SE,143,0.0,1.0,67,0.00,,CLR,0.00,VWS V14.01,2013-02-21 09:50:00,
2013-02-21 04:55:00,23.1,13.8,29.73,SSE,167,2.0,4.0,67,0.00,,CLR,0.00,VWS V14.01,2013-02-21 09:55:00,
2013-02-21 05:00:00,23.0,13.7,29.73,West,269,5.0,5.0,67,0.00,,CLR,0.00,VWS V14.01,2013-02-21 10:00:00,
2013-02-21 05:05:00,23.0,13.7,29.73,NW,316,2.0,5.0,67,0.00,,CLR,0.00,VWS V14.01,2013-02-21 10:05:00,
2013-02-21 05:10:00,22.9,13.9,29.74,SW,225,3.0,4.0,68,0.00,,CLR,0.00,VWS V14.01,2013-02-21 10:10:00,
2013-02-21 05:15:00,22.9,13.6,29.74,WSW,255,2.0,5.0,67,0.00,,CLR,0.00,VWS V14.01,2013-02-21 10:15:00,
2013-02-21 05:20:00,22.8,13.5,29.74,ESE,122,0.0,5.0,67,0.00,,CLR,0.00,VWS V14.01,2013-02-21 10:20:00,
2013-02-21 05:25:00,22.6,13.6,29.74,SW,235,1.0,2.0,68,0.00,,CLR,0.00,VWS V14.01,2013-02-21 10:25:00,
2013-02-21 05:30:00,22.6,13.6,29.74,West,269,2.0,2.0,68,0.00,,CLR,0.00,VWS V14.01,2013-02-21 10:30:00,
2013-02-21 05:35:00,22.6,13.3,29.75,West,269,1.0,3.0,67,0.00,,CLR,0.00,VWS V14.01,2013-02-21 10:35:00,
2013-02-21 05:40:00,22.7,13.4,29.74,West,278,2.0,5.0,67,0.00,,CLR,0.00,VWS V14.01,2013-02-21 10:40:00,
2013-02-21 05:45:00,22.7,13.4,29.75,SW,232,2.0,3.0,67,0.00,,CLR,0.00,VWS V14.01,2013-02-21 10:45:00,
2013-02-21 05:50:00,22.7,13.4,29.74,WSW,255,1.0,7.0,67,0.00,,CLR,0.00,VWS V14.01,2013-02-21 10:50:00,
2013-02-21 05:55:00,22.8,13.2,29.74,WNW,303,4.0,8.0,66,0.00,,CLR,0.00,VWS V14.01,2013-02-21 10:55:00,
2013-02-21 06:00:00,22.8,13.2,29.74,NW,323,1.0,6.0,66,0.00,,CLR,0.00,VWS V14.01,2013-02-21 11:00:00,
2013-02-21 06:05:00,22.8,13.2,29.75,SW,222,4.0,7.0,66,0.00,,CLR,0.00,VWS V14.01,2013-02-21 11:05:00,
2013-02-21 06:10:00,22.7,13.1,29.75,West,273,2.0,3.0,66,0.00,,CLR,0.00,VWS V14.01,2013-02-21 11:10:00,
2013-02-21 06:15:00,22.8,13.2,29.75,SSW,205,2.0,7.0,66,0.00,,CLR,0.00,VWS V14.01,2013-02-21 11:15:00,
2013-02-21 06:20:00,22.8,13.2,29.75,WSW,241,3.0,5.0,66,0.00,,CLR,0.00,VWS V14.01,2013-02-21 11:20:00,
2013-02-21 06:25:00,22.7,13.1,29.75,SW,228,1.0,6.0,66,0.00,,CLR,0.00,VWS V14.01,2013-02-21 11:25:00,
2013-02-21 06:30:00,22.7,12.7,29.75,SW,219,1.0,5.0,65,0.00,,CLR,0.00,VWS V14.01,2013-02-21 11:30:00,
2013-02-21 06:35:00,22.6,12.6,29.75,SSW,197,2.0,8.0,65,0.00,,CLR,0.00,VWS V14.01,2013-02-21 11:35:00,
2013-02-21 06:40:00,22.5,12.5,29.75,WSW,240,2.0,3.0,65,0.00,,CLR,0.00,VWS V14.01,2013-02-21 11:40:00,
2013-02-21 06:45:00,22.4,12.4,29.75,SW,231,2.0,7.0,65,0.00,,CLR,0.00,VWS V14.01,2013-02-21 11:45:00,
2013-02-21 06:50:00,22.5,12.2,29.75,WSW,245,4.0,11.0,64,0.00,,CLR,0.00,VWS V14.01,2013-02-21 11:50:00,
2013-02-21 06:55:00,22.5,12.2,29.75,ESE,120,1.0,4.0,64,0.00,,CLR,0.00,VWS V14.01,2013-02-21 11:55:00,
2013-02-21 07:00:00,22.4,12.1,29.75,West,264,2.0,4.0,64,0.00,,CLR,0.00,VWS V14.01,2013-02-21 12:00:00,
2013-02-21 07:05:00,22.8,12.5,29.76,SSW,208,2.0,4.0,64,0.00,,CLR,0.00,VWS V14.01,2013-02-21 12:05:00,
2013-02-21 07:10:00,23.4,12.3,29.76,SW,231,3.0,4.0,62,0.00,,CLR,0.00,VWS V14.01,2013-02-21 12:10:00,
2013-02-21 07:15:00,23.7,12.2,29.76,North,349,2.0,5.0,61,0.00,,CLR,0.00,VWS V14.01,2013-02-21 12:15:00,
2013-02-21 07:20:00,23.9,12.1,29.76,WNW,291,2.0,8.0,60,0.00,,CLR,0.00,VWS V14.01,2013-02-21 12:20:00,
2013-02-21 07:25:00,24.0,11.8,29.76,West,267,3.0,9.0,59,0.00,,CLR,0.00,VWS V14.01,2013-02-21 12:25:00,
2013-02-21 07:30:00,23.9,12.1,29.76,WNW,301,6.0,6.0,60,0.00,,CLR,0.00,VWS V14.01,2013-02-21 12:30:00,
2013-02-21 07:35:00,23.9,11.7,29.76,WSW,244,3.0,11.0,59,0.00,,CLR,0.00,VWS V14.01,2013-02-21 12:35:00,
2013-02-21 07:40:00,23.8,11.2,29.76,West,260,10.0,10.0,58,0.00,,CLR,0.00,VWS V14.01,2013-02-21 12:40:00,
2013-02-21 07:45:00,23.6,11.0,29.76,WSW,239,4.0,13.0,58,0.00,,CLR,0.00,VWS V14.01,2013-02-21 12:45:00,
2013-02-21 07:50:00,23.6,11.0,29.76,ENE,70,1.0,10.0,58,0.00,,CLR,0.00,VWS V14.01,2013-02-21 12:50:00,
2013-02-21 07:55:00,23.8,11.2,29.76,WNW,303,2.0,4.0,58,0.00,,CLR,0.00,VWS V14.01,2013-02-21 12:55:00,
2013-02-21 08:00:00,23.8,11.2,29.77,SW,214,6.0,8.0,58,0.00,,CLR,0.00,VWS V14.01,2013-02-21 13:00:00,
2013-02-21 08:05:00,23.7,10.7,29.76,West,280,4.0,10.0,57,0.00,,CLR,0.00,VWS V14.01,2013-02-21 13:05:00,
2013-02-21 08:10:00,23.7,10.7,29.77,WNW,291,7.0,9.0,57,0.00,,CLR,0.00,VWS V14.01,2013-02-21 13:10:00,
2013-02-21 08:15:00,23.7,10.7,29.77,West,269,9.0,12.0,57,0.00,,CLR,0.00,VWS V14.01,2013-02-21 13:15:00,
2013-02-21 08:20:00,23.6,10.6,29.77,SSW,208,2.0,6.0,57,0.00,,CLR,0.00,VWS V14.01,2013-02-21 13:20:00,
2013-02-21 08:25:00,23.6,10.2,29.76,NW,304,3.0,11.0,56,0.00,,CLR,0.00,VWS V14.01,2013-02-21 13:25:00,
2013-02-21 08:30:00,23.5,10.5,29.77,WNW,294,3.0,6.0,57,0.00,,CLR,0.00,VWS V14.01,2013-02-21 13:30:00,
2013-02-21 08:35:00,23.4,10.0,29.76,West,264,4.0,7.0,56,0.00,,CLR,0.00,VWS V14.01,2013-02-21 13:35:00,
2013-02-21 08:40:00,23.6,10.2,29.76,SW,232,2.0,12.0,56,0.00,,CLR,0.00,VWS V14.01,2013-02-21 13:40:00,
2013-02-21 08:45:00,24.0,10.6,29.77,NW,323,2.0,5.0,56,0.00,,CLR,0.00,VWS V14.01,2013-02-21 13:45:00,
2013-02-21 08:50:00,24.2,10.4,29.76,WSW,250,11.0,11.0,55,0.00,,CLR,0.00,VWS V14.01,2013-02-21 13:50:00,
2013-02-21 08:55:00,24.4,10.6,29.76,West,273,11.0,11.0,55,0.00,,CLR,0.00,VWS V14.01,2013-02-21 13:55:00,
2013-02-21 09:00:00,24.4,10.1,29.76,West,269,6.0,10.0,54,0.00,,CLR,0.00,VWS V14.01,2013-02-21 14:00:00,
2013-02-21 09:05:00,24.5,10.2,29.76,NW,320,6.0,11.0,54,0.00,,CLR,0.00,VWS V14.01,2013-02-21 14:05:00,
2013-02-21 09:10:00,24.7,10.4,29.76,SSW,198,1.0,8.0,54,0.00,,CLR,0.00,VWS V14.01,2013-02-21 14:10:00,
2013-02-21 09:15:00,25.1,10.8,29.76,West,271,4.0,12.0,54,0.00,,CLR,0.00,VWS V14.01,2013-02-21 14:15:00,
2013-02-21 09:20:00,25.2,10.5,29.76,WNW,301,5.0,14.0,53,0.00,,CLR,0.00,VWS V14.01,2013-02-21 14:20:00,
2013-02-21 09:25:00,25.5,10.8,29.76,WNW,291,4.0,7.0,53,0.00,,CLR,0.00,VWS V14.01,2013-02-21 14:25:00,
2013-02-21 09:30:00,25.6,11.3,29.76,WNW,298,3.0,5.0,54,0.00,,CLR,0.00,VWS V14.01,2013-02-21 14:30:00,
2013-02-21 09:35:00,25.6,10.4,29.76,WNW,296,5.0,10.0,52,0.00,,CLR,0.00,VWS V14.01,2013-02-21 14:35:00,
2013-02-21 09:40:00,25.9,11.1,29.76,NW,319,1.0,4.0,53,0.00,,CLR,0.00,VWS V14.01,2013-02-21 14:40:00,
2013-02-21 09:45:00,26.2,11.4,29.76,NE,39,3.0,7.0,53,0.00,,CLR,0.00,VWS V14.01,2013-02-21 14:45:00,
2013-02-21 09:50:00,26.4,10.7,29.76,West,262,4.0,11.0,51,0.00,,CLR,0.00,VWS V14.01,2013-02-21 14:50:00,
2013-02-21 09:55:00,26.2,11.0,29.76,NE,34,3.0,9.0,52,0.00,,CLR,0.00,VWS V14.01,2013-02-21 14:55:00,
2013-02-21 10:00:00,26.5,11.3,29.76,NNE,28,4.0,7.0,52,0.00,,CLR,0.00,VWS V14.01,2013-02-21 15:00:00,
2013-02-21 10:05:00,26.5,10.4,29.76,West,271,4.0,7.0,50,0.00,,CLR,0.00,VWS V14.01,2013-02-21 15:05:00,
2013-02-21 10:10:00,26.6,11.4,29.77,North,11,3.0,11.0,52,0.00,,CLR,0.00,VWS V14.01,2013-02-21 15:10:00,
2013-02-21 10:15:00,26.9,10.8,29.76,NNW,332,6.0,14.0,50,0.00,,CLR,0.00,VWS V14.01,2013-02-21 15:15:00,
2013-02-21 10:20:00,26.9,11.2,29.76,WNW,285,9.0,12.0,51,0.00,,CLR,0.00,VWS V14.01,2013-02-21 15:20:00,
2013-02-21 10:25:00,27.0,11.3,29.76,NW,304,5.0,10.0,51,0.00,,CLR,0.00,VWS V14.01,2013-02-21 15:25:00,
2013-02-21 10:30:00,27.0,11.3,29.76,NE,34,8.0,11.0,51,0.00,,CLR,0.00,VWS V14.01,2013-02-21 15:30:00,
2013-02-21 10:35:00,27.1,10.9,29.76,South,181,5.0,9.0,50,0.00,,CLR,0.00,VWS V14.01,2013-02-21 15:35:00,
2013-02-21 10:40:00,27.4,11.7,29.76,WNW,285,2.0,8.0,51,0.00,,CLR,0.00,VWS V14.01,2013-02-21 15:40:00,
2013-02-21 10:45:00,27.7,11.5,29.77,West,262,5.0,9.0,50,0.00,,CLR,0.00,VWS V14.01,2013-02-21 15:45:00,
2013-02-21 10:50:00,27.9,11.7,29.76,West,269,6.0,6.0,50,0.00,,CLR,0.00,VWS V14.01,2013-02-21 15:50:00,
2013-02-21 10:55:00,28.1,11.4,29.76,West,259,4.0,10.0,49,0.00,,CLR,0.00,VWS V14.01,2013-02-21 15:55:00,
2013-02-21 11:00:00,28.5,12.2,29.76,NNW,345,3.0,7.0,50,0.00,,CLR,0.00,VWS V14.01,2013-02-21 16:00:00,
2013-02-21 11:05:00,28.6,11.4,29.76,WNW,291,2.0,7.0,48,0.00,,CLR,0.00,VWS V14.01,2013-02-21 16:05:00,
2013-02-21 11:10:00,28.9,12.1,29.77,ENE,65,5.0,5.0,49,0.00,,CLR,0.00,VWS V14.01,2013-02-21 16:10:00,
2013-02-21 11:15:00,28.8,11.1,29.76,NNE,13,14.0,15.0,47,0.00,,CLR,0.00,VWS V14.01,2013-02-21 16:15:00,
2013-02-21 11:20:00,28.6,11.4,29.76,NE,37,5.0,10.0,48,0.00,,CLR,0.00,VWS V14.01,2013-02-21 16:20:00,
2013-02-21 11:25:00,28.5,11.8,29.77,WNW,301,2.0,6.0,49,0.00,,CLR,0.00,VWS V14.01,2013-02-21 16:25:00,
2013-02-21 11:30:00,28.2,11.5,29.77,NW,305,3.0,11.0,49,0.00,,CLR,0.00,VWS V14.01,2013-02-21 16:30:00,
2013-02-21 11:35:00,27.9,11.2,29.77,East,80,7.0,13.0,49,0.00,,CLR,0.00,VWS V14.01,2013-02-21 16:35:00,
2013-02-21 11:40:00,28.3,11.6,29.77,West,269,6.0,8.0,49,0.00,,CLR,0.00,VWS V14.01,2013-02-21 16:40:00,
2013-02-21 11:45:00,28.3,11.6,29.77,West,263,5.0,9.0,49,0.00,,CLR,0.00,VWS V14.01,2013-02-21 16:45:00,
2013-02-21 11:50:00,29.3,13.0,29.77,North,354,5.0,7.0,50,0.00,,CLR,0.00,VWS V14.01,2013-02-21 16:50:00,
2013-02-21 11:55:00,29.4,12.1,29.77,NNE,13,6.0,9.0,48,0.00,,CLR,0.00,VWS V14.01,2013-02-21 16:55:00,
2013-02-21 12:00:00,28.4,11.2,29.77,NNW,330,7.0,11.0,48,0.00,,CLR,0.00,VWS V14.01,2013-02-21 17:00:00,
2013-02-21 12:05:00,28.1,11.9,29.77,NE,50,2.0,11.0,50,0.00,,CLR,0.00,VWS V14.01,2013-02-21 17:05:00,
2013-02-21 12:10:00,28.6,12.3,29.77,NNW,345,4.0,12.0,50,0.00,,CLR,0.00,VWS V14.01,2013-02-21 17:10:00,
2013-02-21 12:15:00,28.9,12.6,29.77,NNW,331,5.0,9.0,50,0.00,,CLR,0.00,VWS V14.01,2013-02-21 17:15:00,
2013-02-21 12:20:00,29.0,11.8,29.77,NNW,328,4.0,12.0,48,0.00,,CLR,0.00,VWS V14.01,2013-02-21 17:20:00,
2013-02-21 12:25:00,29.0,11.8,29.77,NNW,337,1.0,16.0,48,0.00,,CLR,0.00,VWS V14.01,2013-02-21 17:25:00,
2013-02-21 12:30:00,29.3,12.1,29.77,NW,312,10.0,12.0,48,0.00,,CLR,0.00,VWS V14.01,2013-02-21 17:30:00,
2013-02-21 12:35:00,29.4,12.1,29.77,NW,311,7.0,12.0,48,0.00,,CLR,0.00,VWS V14.01,2013-02-21 17:35:00,
2013-02-21 12:40:00,29.7,12.4,29.77,NE,45,7.0,10.0,48,0.00,,CLR,0.00,VWS V14.01,2013-02-21 17:40:00,
2013-02-21 12:45:00,30.1,12.3,29.77,NW,309,3.0,9.0,47,0.00,,CLR,0.00,VWS V14.01,2013-02-21 17:45:00,
2013-02-21 12:50:00,30.1,11.8,29.77,North,359,9.0,14.0,46,0.00,,CLR,0.00,VWS V14.01,2013-02-21 17:50:00,
2013-02-21 12:55:00,30.3,12.5,29.77,North,6,7.0,11.0,47,0.00,,CLR,0.00,VWS V14.01,2013-02-21 17:55:00,
2013-02-21 13:00:00,30.2,12.9,29.77,NE,35,5.0,11.0,48,0.00,,CLR,0.00,VWS V14.01,2013-02-21 18:00:00,
2013-02-21 13:05:00,30.4,12.6,29.77,North,4,10.0,14.0,47,0.00,,CLR,0.00,VWS V14.01,2013-02-21 18:05:00,
2013-02-21 13:10:00,30.3,12.5,29.77,NE,39,9.0,17.0,47,0.00,,CLR,0.00,VWS V14.01,2013-02-21 18:10:00,
2013-02-21 13:15:00,30.0,12.2,29.77,NNE,32,4.0,11.0,47,0.00,,CLR,0.00,VWS V14.01,2013-02-21 18:15:00,
2013-02-21 13:20:00,30.2,12.4,29.77,North,4,2.0,9.0,47,0.00,,CLR,0.00,VWS V14.01,2013-02-21 18:20:00,
2013-02-21 13:25:00,30.0,12.2,29.77,NW,318,7.0,13.0,47,0.00,,CLR,0.00,VWS V14.01,2013-02-21 18:25:00,
2013-02-21 13:30:00,30.4,13.1,29.78,WNW,288,7.0,13.0,48,0.00,,CLR,0.00,VWS V14.01,2013-02-21 18:30:00,
2013-02-21 13:35:00,30.0,12.2,29.77,NNE,18,12.0,17.0,47,0.00,,CLR,0.00,VWS V14.01,2013-02-21 18:35:00,
2013-02-21 13:40:00,30.0,12.7,29.78,NW,316,4.0,18.0,48,0.00,,CLR,0.00,VWS V14.01,2013-02-21 18:40:00,
2013-02-21 13:45:00,30.3,13.0,29.78,West,262,7.0,11.0,48,0.00,,CLR,0.00,VWS V14.01,2013-02-21 18:45:00,
2013-02-21 13:50:00,30.2,13.4,29.78,WSW,243,3.0,13.0,49,0.00,,CLR,0.00,VWS V14.01,2013-02-21 18:50:00,
2013-02-21 13:55:00,30.2,12.9,29.78,NW,325,4.0,15.0,48,0.00,,CLR,0.00,VWS V14.01,2013-02-21 18:55:00,
2013-02-21 14:00:00,29.8,12.5,29.78,NW,314,6.0,13.0,48,0.00,,CLR,0.00,VWS V14.01,2013-02-21 19:00:00,
2013-02-21 14:05:00,29.7,12.4,29.78,NNW,335,4.0,8.0,48,0.00,,CLR,0.00,VWS V14.01,2013-02-21 19:05:00,
2013-02-21 14:10:00,29.7,12.9,29.78,NE,35,1.0,5.0,49,0.00,,CLR,0.00,VWS V14.01,2013-02-21 19:10:00,
2013-02-21 14:15:00,30.2,13.4,29.79,NNW,347,9.0,13.0,49,0.00,,CLR,0.00,VWS V14.01,2013-02-21 19:15:00,
2013-02-21 14:20:00,30.4,13.1,29.79,NW,319,5.0,13.0,48,0.00,,CLR,0.00,VWS V14.01,2013-02-21 19:20:00,
2013-02-21 14:25:00,30.7,13.4,29.79,WNW,297,3.0,10.0,48,0.00,,CLR,0.00,VWS V14.01,2013-02-21 19:25:00,
2013-02-21 14:30:00,30.5,13.2,29.79,SW,222,1.0,12.0,48,0.00,,CLR,0.00,VWS V14.01,2013-02-21 19:30:00,
2013-02-21 14:35:00,30.5,13.2,29.79,SW,217,6.0,12.0,48,0.00,,CLR,0.00,VWS V14.01,2013-02-21 19:35:00,
2013-02-21 14:40:00,30.6,13.3,29.80,SW,236,4.0,10.0,48,0.00,,CLR,0.00,VWS V14.01,2013-02-21 19:40:00,
2013-02-21 14:45:00,30.8,13.9,29.79,West,280,4.0,10.0,49,0.00,,CLR,0.00,VWS V14.01,2013-02-21 19:45:00,
2013-02-21 14:50:00,30.6,13.7,29.80,SW,226,4.0,12.0,49,0.00,,CLR,0.00,VWS V14.01,2013-02-21 19:50:00,
2013-02-21 14:55:00,30.5,13.2,29.81,WNW,283,6.0,16.0,48,0.00,,CLR,0.00,VWS V14.01,2013-02-21 19:55:00,
2013-02-21 15:00:00,30.5,13.6,29.81,NW,325,6.0,14.0,49,0.00,,CLR,0.00,VWS V14.01,2013-02-21 20:00:00,
2013-02-21 15:05:00,30.5,13.6,29.81,SSE,158,3.0,7.0,49,0.00,,CLR,0.00,VWS V14.01,2013-02-21 20:05:00,
2013-02-21 15:10:00,30.5,13.6,29.81,NW,319,2.0,11.0,49,0.00,,CLR,0.00,VWS V14.01,2013-02-21 20:10:00,
2013-02-21 15:15:00,30.5,13.6,29.81,NNE,32,5.0,5.0,49,0.00,,CLR,0.00,VWS V14.01,2013-02-21 20:15:00,
2013-02-21 15:20:00,30.6,14.2,29.81,NNW,328,5.0,7.0,50,0.00,,CLR,0.00,VWS V14.01,2013-02-21 20:20:00,
2013-02-21 15:25:00,30.5,13.6,29.82,NW,321,1.0,8.0,49,0.00,,CLR,0.00,VWS V14.01,2013-02-21 20:25:00,
2013-02-21 15:30:00,30.4,13.5,29.82,SSE,149,3.0,9.0,49,0.00,,CLR,0.00,VWS V14.01,2013-02-21 20:30:00,
2013-02-21 15:35:00,30.3,14.4,29.82,NNW,332,2.0,12.0,51,0.00,,CLR,0.00,VWS V14.01,2013-02-21 20:35:00,
2013-02-21 15:40:00,30.3,13.9,29.83,North,356,9.0,9.0,50,0.00,,CLR,0.00,VWS V14.01,2013-02-21 20:40:00,
2013-02-21 15:45:00,30.2,13.8,29.83,WNW,283,5.0,9.0,50,0.00,,CLR,0.00,VWS V14.01,2013-02-21 20:45:00,
2013-02-21 15:50:00,30.1,13.7,29.83,North,6,3.0,7.0,50,0.00,,CLR,0.00,VWS V14.01,2013-02-21 20:50:00,
2013-02-21 15:55:00,30.1,14.2,29.84,NW,308,12.0,12.0,51,0.00,,CLR,0.00,VWS V14.01,2013-02-21 20:55:00,
2013-02-21 16:00:00,30.0,14.1,29.84,NNW,345,1.0,7.0,51,0.00,,CLR,0.00,VWS V14.01,2013-02-21 21:00:00,
2013-02-21 16:05:00,29.9,14.0,29.84,SW,226,2.0,17.0,51,0.00,,CLR,0.00,VWS V14.01,2013-02-21 21:05:00,
2013-02-21 16:10:00,30.0,14.1,29.85,NNW,327,3.0,16.0,51,0.00,,CLR,0.00,VWS V14.01,2013-02-21 21:10:00,
2013-02-21 16:15:00,29.9,13.5,29.85,WNW,285,3.0,11.0,50,0.00,,CLR,0.00,VWS V14.01,2013-02-21 21:15:00,
2013-02-21 16:20:00,29.7,13.8,29.85,WNW,294,9.0,12.0,51,0.00,,CLR,0.00,VWS V14.01,2013-02-21 21:20:00,
2013-02-21 16:25:00,29.4,14.0,29.86,ENE,73,3.0,9.0,52,0.00,,CLR,0.00,VWS V14.01,2013-02-21 21:25:00,
2013-02-21 16:30:00,29.2,13.0,29.86,NNE,15,9.0,12.0,52,0.00,,,0.00,weatherlink.com 1.10,2013-02-21 21:30:00,
2013-02-21 16:35:00,29.0,14.0,29.87,West,276,5.0,15.0,53,0.00,,CLR,0.00,VWS V14.01,2013-02-21 21:35:00,
2013-02-21 16:40:00,28.7,13.8,29.87,NNE,23,6.0,17.0,53,0.00,,CLR,0.00,VWS V14.01,2013-02-21 21:40:00,
2013-02-21 16:45:00,28.4,13.9,29.87,NW,320,11.0,16.0,54,0.00,,CLR,0.00,VWS V14.01,2013-02-21 21:45:00,
2013-02-21 16:50:00,28.3,13.8,29.87,WNW,301,4.0,16.0,54,0.00,,CLR,0.00,VWS V14.01,2013-02-21 21:50:00,
2013-02-21 16:55:00,28.1,13.6,29.88,NNE,13,3.0,10.0,54,0.00,,CLR,0.00,VWS V14.01,2013-02-21 21:55:00,
2013-02-21 17:00:00,28.0,13.5,29.89,WNW,293,4.0,15.0,54,0.00,,CLR,0.00,VWS V14.01,2013-02-21 22:00:00,
2013-02-21 17:05:00,28.0,13.9,29.90,NNW,333,8.0,11.0,55,0.00,,CLR,0.00,VWS V14.01,2013-02-21 22:05:00,
2013-02-21 17:10:00,27.9,13.8,29.89,NNW,328,7.0,9.0,55,0.00,,CLR,0.00,VWS V14.01,2013-02-21 22:10:00,
2013-02-21 17:15:00,27.7,14.1,29.90,WNW,288,4.0,12.0,56,0.00,,CLR,0.00,VWS V14.01,2013-02-21 22:15:00,
2013-02-21 17:20:00,27.7,14.1,29.90,NW,320,2.0,16.0,56,0.00,,CLR,0.00,VWS V14.01,2013-02-21 22:20:00,
2013-02-21 17:25:00,27.6,14.0,29.91,NNE,13,8.0,12.0,56,0.00,,CLR,0.00,VWS V14.01,2013-02-21 22:25:00,
2013-02-21 17:30:00,27.5,13.9,29.91,ENE,63,6.0,13.0,56,0.00,,CLR,0.00,VWS V14.01,2013-02-21 22:30:00,
2013-02-21 17:35:00,27.5,13.9,29.92,NNE,16,6.0,11.0,56,0.00,,CLR,0.00,VWS V14.01,2013-02-21 22:35:00,
2013-02-21 17:40:00,27.3,14.1,29.92,NNE,23,4.0,10.0,57,0.00,,CLR,0.00,VWS V14.01,2013-02-21 22:40:00,
2013-02-21 17:44:00,27.1,14.3,29.93,NW,321,6.0,19.0,58,0.00,,CLR,0.00,VWS V14.01,2013-02-21 22:44:00,
2013-02-21 17:45:00,25.6,14.0,29.97,NNE,27,8.0,10.0,61,0.00,,CLR,0.00,VWS V14.01,2013-02-21 22:45:00,
2013-02-21 17:50:00,27.0,13.8,29.93,WNW,302,5.0,13.0,57,0.00,,CLR,0.00,VWS V14.01,2013-02-21 22:50:00,
2013-02-21 17:55:00,26.9,14.1,29.93,NW,325,5.0,10.0,58,0.00,,CLR,0.00,VWS V14.01,2013-02-21 22:55:00,
2013-02-21 18:00:00,26.7,13.5,29.94,WNW,286,9.0,15.0,57,0.00,,CLR,0.00,VWS V14.01,2013-02-21 23:00:00,
2013-02-21 18:04:00,26.6,13.8,29.94,North,349,6.0,12.0,58,0.00,,CLR,0.00,VWS V14.01,2013-02-21 23:04:00,
2013-02-21 18:09:00,26.5,13.7,29.94,NW,322,6.0,12.0,58,0.00,,CLR,0.00,VWS V14.01,2013-02-21 23:09:00,
2013-02-21 18:14:00,26.3,13.9,29.95,NW,316,6.0,9.0,59,0.00,,CLR,0.00,VWS V14.01,2013-02-21 23:14:00,
2013-02-21 18:15:00,25.1,14.3,30.00,NNE,18,3.0,7.0,63,0.00,,CLR,0.00,VWS V14.01,2013-02-21 23:15:00,
2013-02-21 18:19:00,26.2,13.8,29.95,NNE,26,11.0,11.0,59,0.00,,CLR,0.00,VWS V14.01,2013-02-21 23:19:00,
2013-02-21 18:24:00,26.1,13.8,29.95,NNE,23,3.0,15.0,59,0.00,,CLR,0.00,VWS V14.01,2013-02-21 23:24:00,
2013-02-21 18:29:00,25.9,13.6,29.96,NNW,335,3.0,8.0,59,0.00,,CLR,0.00,VWS V14.01,2013-02-21 23:29:00,
2013-02-21 18:30:00,24.9,14.5,30.01,NE,40,6.0,11.0,64,0.00,,CLR,0.00,VWS V14.01,2013-02-21 23:30:00,
2013-02-21 18:34:00,25.8,13.9,29.96,NNW,346,8.0,11.0,60,0.00,,CLR,0.00,VWS V14.01,2013-02-21 23:34:00,
2013-02-21 18:39:00,25.8,13.9,29.97,NE,34,3.0,14.0,60,0.00,,CLR,0.00,VWS V14.01,2013-02-21 23:39:00,
2013-02-21 18:44:00,25.7,14.1,29.98,North,10,1.0,7.0,61,0.00,,CLR,0.00,VWS V14.01,2013-02-21 23:44:00,
2013-02-21 18:45:00,24.7,14.6,30.01,WNW,283,9.0,10.0,65,0.00,,CLR,0.00,VWS V14.01,2013-02-21 23:45:00,
2013-02-21 18:49:00,25.5,13.9,29.98,North,9,10.0,11.0,61,0.00,,CLR,0.00,VWS V14.01,2013-02-21 23:49:00,
2013-02-21 18:54:00,25.4,13.8,29.99,North,5,8.0,11.0,61,0.00,,CLR,0.00,VWS V14.01,2013-02-21 23:54:00,
2013-02-21 18:59:00,25.3,14.1,29.99,North,10,7.0,14.0,62,0.00,,CLR,0.00,VWS V14.01,2013-02-21 23:59:00,
2013-02-21 19:00:00,24.5,14.8,30.02,WNW,288,5.0,11.0,66,0.00,,CLR,0.00,VWS V14.01,2013-02-22 00:00:00,
2013-02-21 19:04:00,25.3,14.1,29.99,NNW,330,4.0,13.0,62,0.00,,CLR,0.00,VWS V14.01,2013-02-22 00:04:00,
2013-02-21 19:09:00,25.2,14.0,29.99,NNW,338,4.0,7.0,62,0.00,,CLR,0.00,VWS V14.01,2013-02-22 00:09:00,
2013-02-21 19:14:00,25.2,14.4,30.00,North,11,4.0,10.0,63,0.00,,CLR,0.00,VWS V14.01,2013-02-22 00:14:00,
2013-02-21 19:15:00,24.4,15.0,30.03,NNW,335,2.0,5.0,67,0.00,,CLR,0.00,VWS V14.01,2013-02-22 00:15:00,
2013-02-21 19:19:00,25.0,14.2,30.00,NNW,345,3.0,7.0,63,0.00,,CLR,0.00,VWS V14.01,2013-02-22 00:19:00,
2013-02-21 19:24:00,24.9,14.1,30.00,North,5,4.0,13.0,63,0.00,,CLR,0.00,VWS V14.01,2013-02-22 00:24:00,
2013-02-21 19:29:00,24.9,14.5,30.01,NNW,343,8.0,16.0,64,0.00,,CLR,0.00,VWS V14.01,2013-02-22 00:29:00,
2013-02-21 19:30:00,24.3,14.9,30.03,NW,308,6.0,6.0,67,0.00,,CLR,0.00,VWS V14.01,2013-02-22 00:30:00,
2013-02-21 19:34:00,24.9,14.5,30.01,NNW,330,4.0,14.0,64,0.00,,CLR,0.00,VWS V14.01,2013-02-22 00:34:00,
2013-02-21 19:39:00,24.8,14.4,30.01,NNE,30,2.0,11.0,64,0.00,,CLR,0.00,VWS V14.01,2013-02-22 00:39:00,
2013-02-21 19:44:00,24.7,14.6,30.01,WNW,290,10.0,10.0,65,0.00,,CLR,0.00,VWS V14.01,2013-02-22 00:44:00,
2013-02-21 19:45:00,24.5,15.5,30.04,North,352,4.0,11.0,68,0.00,,CLR,0.00,VWS V14.01,2013-02-22 00:45:00,
2013-02-21 19:49:00,24.7,14.6,30.02,NNW,338,7.0,11.0,65,0.00,,CLR,0.00,VWS V14.01,2013-02-22 00:49:00,
2013-02-21 19:54:00,24.6,14.5,30.02,West,260,4.0,5.0,65,0.00,,CLR,0.00,VWS V14.01,2013-02-22 00:54:00,
2013-02-21 19:59:00,24.6,14.9,30.01,NW,310,3.0,7.0,66,0.00,,CLR,0.00,VWS V14.01,2013-02-22 00:59:00,
2013-02-21 20:00:00,24.4,15.7,30.06,NW,305,3.0,8.0,69,0.00,,CLR,0.00,VWS V14.01,2013-02-22 01:00:00,
2013-02-21 20:05:00,24.5,14.8,30.02,NNE,12,3.0,9.0,66,0.00,,CLR,0.00,VWS V14.01,2013-02-22 01:05:00,
2013-02-21 20:10:00,24.5,14.8,30.02,NNW,336,4.0,9.0,66,0.00,,CLR,0.00,VWS V14.01,2013-02-22 01:10:00,
2013-02-21 20:15:00,24.4,14.7,30.03,NW,326,2.0,8.0,66,0.00,,CLR,0.00,VWS V14.01,2013-02-22 01:15:00,
2013-02-21 20:20:00,24.3,14.9,30.03,NNE,20,2.0,7.0,67,0.00,,CLR,0.00,VWS V14.01,2013-02-22 01:20:00,
2013-02-21 20:25:00,24.2,14.8,30.03,NNW,338,7.0,8.0,67,0.00,,CLR,0.00,VWS V14.01,2013-02-22 01:25:00,
2013-02-21 20:30:00,24.3,14.9,30.03,NNE,23,3.0,7.0,67,0.00,,CLR,0.00,VWS V14.01,2013-02-22 01:30:00,
2013-02-21 20:35:00,24.3,15.3,30.04,North,9,3.0,9.0,68,0.00,,CLR,0.00,VWS V14.01,2013-02-22 01:35:00,
2013-02-21 20:40:00,24.3,15.3,30.04,NNE,27,6.0,9.0,68,0.00,,CLR,0.00,VWS V14.01,2013-02-22 01:40:00,
2013-02-21 20:45:00,24.4,15.4,30.04,NNW,335,4.0,11.0,68,0.00,,CLR,0.00,VWS V14.01,2013-02-22 01:45:00,
2013-02-21 20:50:00,24.4,15.4,30.05,NNW,342,2.0,8.0,68,0.00,,CLR,0.00,VWS V14.01,2013-02-22 01:50:00,
2013-02-21 20:55:00,24.4,15.4,30.05,NNE,13,4.0,11.0,68,0.00,,CLR,0.00,VWS V14.01,2013-02-22 01:55:00,
2013-02-21 21:00:00,24.3,15.6,30.06,NNW,338,6.0,8.0,69,0.00,,CLR,0.00,VWS V14.01,2013-02-22 02:00:00,
2013-02-21 21:05:00,24.3,15.6,30.05,WNW,303,2.0,10.0,69,0.00,,CLR,0.00,VWS V14.01,2013-02-22 02:05:00,
2013-02-21 21:09:00,24.3,15.6,30.05,NNE,19,5.0,6.0,69,0.00,,CLR,0.00,VWS V14.01,2013-02-22 02:09:00,
2013-02-21 21:14:00,24.3,15.6,30.06,West,259,2.0,6.0,69,0.00,,CLR,0.00,VWS V14.01,2013-02-22 02:14:00,
2013-02-21 21:15:00,24.2,15.8,30.07,NW,321,1.0,4.0,70,0.00,,CLR,0.00,VWS V14.01,2013-02-22 02:15:00,
2013-02-21 21:19:00,24.3,15.6,30.06,North,9,4.0,7.0,69,0.00,,CLR,0.00,VWS V14.01,2013-02-22 02:19:00,
2013-02-21 21:24:00,24.4,15.7,30.06,WNW,283,3.0,7.0,69,0.00,,CLR,0.00,VWS V14.01,2013-02-22 02:24:00,
2013-02-21 21:29:00,24.4,15.7,30.06,WSW,250,3.0,8.0,69,0.00,,CLR,0.00,VWS V14.01,2013-02-22 02:29:00,
2013-02-21 21:30:00,24.2,16.2,30.08,WNW,298,0.0,6.0,71,0.00,,CLR,0.00,VWS V14.01,2013-02-22 02:30:00,
2013-02-21 21:34:00,24.3,15.6,30.06,WNW,293,1.0,4.0,69,0.00,,CLR,0.00,VWS V14.01,2013-02-22 02:34:00,
2013-02-21 21:39:00,24.3,15.6,30.06,North,4,3.0,6.0,69,0.00,,CLR,0.00,VWS V14.01,2013-02-22 02:39:00,
2013-02-21 21:44:00,24.3,15.6,30.07,NW,309,2.0,5.0,69,0.00,,CLR,0.00,VWS V14.01,2013-02-22 02:44:00,
2013-02-21 21:45:00,23.7,16.0,30.10,NW,323,4.0,4.0,72,0.00,,CLR,0.00,VWS V14.01,2013-02-22 02:45:00,
2013-02-21 21:49:00,24.3,15.9,30.07,NNE,13,4.0,5.0,70,0.00,,CLR,0.00,VWS V14.01,2013-02-22 02:49:00,
2013-02-21 21:54:00,24.3,15.9,30.07,North,357,3.0,7.0,70,0.00,,CLR,0.00,VWS V14.01,2013-02-22 02:54:00,
2013-02-21 21:59:00,24.3,15.9,30.07,West,279,2.0,5.0,70,0.00,,CLR,0.00,VWS V14.01,2013-02-22 02:59:00,
2013-02-21 22:00:00,23.6,15.9,30.10,NNW,343,2.0,4.0,72,0.00,,CLR,0.00,VWS V14.01,2013-02-22 03:00:00,
2013-02-21 22:04:00,24.2,15.8,30.07,NNW,327,3.0,8.0,70,0.00,,CLR,0.00,VWS V14.01,2013-02-22 03:04:00,
2013-02-21 22:09:00,24.2,15.8,30.07,SW,228,1.0,6.0,70,0.00,,CLR,0.00,VWS V14.01,2013-02-22 03:09:00,
2013-02-21 22:14:00,24.2,15.8,30.07,North,1,3.0,4.0,70,0.00,,CLR,0.00,VWS V14.01,2013-02-22 03:14:00,
2013-02-21 22:15:00,23.8,16.1,30.12,WNW,294,2.0,5.0,72,0.00,,CLR,0.00,VWS V14.01,2013-02-22 03:15:00,
2013-02-21 22:19:00,24.2,15.8,30.07,WNW,300,3.0,7.0,70,0.00,,CLR,0.00,VWS V14.01,2013-02-22 03:19:00,
2013-02-21 22:24:00,24.2,16.2,30.07,North,356,4.0,4.0,71,0.00,,CLR,0.00,VWS V14.01,2013-02-22 03:24:00,
2013-02-21 22:29:00,24.2,16.2,30.07,WNW,303,3.0,6.0,71,0.00,,CLR,0.00,VWS V14.01,2013-02-22 03:29:00,
2013-02-21 22:30:00,23.5,16.1,30.12,NNW,327,1.0,3.0,73,0.00,,CLR,0.00,VWS V14.01,2013-02-22 03:30:00,
2013-02-21 22:34:00,24.2,16.2,30.08,West,277,0.0,3.0,71,0.00,,CLR,0.00,VWS V14.01,2013-02-22 03:34:00,
2013-02-21 22:39:00,24.0,16.0,30.09,WNW,300,1.0,3.0,71,0.00,,CLR,0.00,VWS V14.01,2013-02-22 03:39:00,
2013-02-21 22:44:00,23.8,15.8,30.09,West,278,0.0,2.0,71,0.00,,CLR,0.00,VWS V14.01,2013-02-22 03:44:00,
2013-02-21 22:45:00,23.5,16.1,30.14,West,274,2.0,3.0,73,0.00,,CLR,0.00,VWS V14.01,2013-02-22 03:45:00,
2013-02-21 22:49:00,23.6,15.9,30.10,NNE,23,0.0,4.0,72,0.00,,CLR,0.00,VWS V14.01,2013-02-22 03:49:00,
2013-02-21 22:54:00,23.6,15.9,30.11,WNW,285,0.0,5.0,72,0.00,,CLR,0.00,VWS V14.01,2013-02-22 03:54:00,
2013-02-21 22:59:00,23.6,15.9,30.10,WNW,300,1.0,5.0,72,0.00,,CLR,0.00,VWS V14.01,2013-02-22 03:59:00,
2013-02-21 23:00:00,23.7,16.6,30.16,NE,39,3.0,6.0,74,0.00,,CLR,0.00,VWS V14.01,2013-02-22 04:00:00,
2013-02-21 23:04:00,23.6,15.9,30.11,NNE,18,1.0,3.0,72,0.00,,CLR,0.00,VWS V14.01,2013-02-22 04:04:00,
2013-02-21 23:09:00,23.6,16.2,30.11,NW,305,4.0,6.0,73,0.00,,CLR,0.00,VWS V14.01,2013-02-22 04:09:00,
2013-02-21 23:14:00,23.8,16.1,30.12,West,269,3.0,5.0,72,0.00,,CLR,0.00,VWS V14.01,2013-02-22 04:14:00,
2013-02-21 23:15:00,23.8,16.7,30.17,NNW,346,2.0,4.0,74,0.00,,CLR,0.00,VWS V14.01,2013-02-22 04:15:00,
2013-02-21 23:19:00,23.8,16.1,30.12,West,271,0.0,3.0,72,0.00,,CLR,0.00,VWS V14.01,2013-02-22 04:19:00,
2013-02-21 23:24:00,23.7,16.3,30.13,NW,324,2.0,4.0,73,0.00,,CLR,0.00,VWS V14.01,2013-02-22 04:24:00,
2013-02-21 23:29:00,23.6,16.2,30.12,North,4,0.0,3.0,73,0.00,,CLR,0.00,VWS V14.01,2013-02-22 04:29:00,
2013-02-21 23:30:00,23.9,16.8,30.19,NW,304,4.0,6.0,74,0.00,,CLR,0.00,VWS V14.01,2013-02-22 04:30:00,
2013-02-21 23:34:00,23.6,16.2,30.13,NW,319,2.0,4.0,73,0.00,,CLR,0.00,VWS V14.01,2013-02-22 04:34:00,
2013-02-21 23:39:00,23.6,16.2,30.13,NW,321,3.0,3.0,73,0.00,,CLR,0.00,VWS V14.01,2013-02-22 04:39:00,
2013-02-21 23:44:00,23.5,16.1,30.14,NW,322,1.0,3.0,73,0.00,,CLR,0.00,VWS V14.01,2013-02-22 04:44:00,
2013-02-21 23:45:00,23.8,17.0,30.19,WNW,302,5.0,5.0,75,0.00,,CLR,0.00,VWS V14.01,2013-02-22 04:45:00,
2013-02-21 23:49:00,23.6,16.2,30.15,West,274,1.0,3.0,73,0.00,,CLR,0.00,VWS V14.01,2013-02-22 04:49:00,
2013-02-21 23:54:00,23.5,16.1,30.16,NNW,342,2.0,6.0,73,0.00,,CLR,0.00,VWS V14.01,2013-02-22 04:54:00,
2013-02-21 23:59:00,23.6,16.5,30.16,NW,320,6.0,6.0,74,0.00,,CLR,0.00,VWS V14.01,2013-02-22 04:59:00,